• In Hungary
  • List of Countries
  • For 7 days
  • Water Temperature
  • Satellite Maps
  • Weather Map
  • News
  • Weather Widgets
  • user-avatar
    Login

    Hourly Weather Elantovo

    Today, 23 May, Wednesday

    Time Temperature Precipitation Wind Pressure Humidity
    00:00 +14°C° 0 mm 2 mps 765 mmHg 68%
    01:00 +14°C° 0 mm 2 mps 765 mmHg 69%
    02:00 +14°C° 0 mm 2 mps 765 mmHg 70%
    03:00 +13°C° 0 mm 2 mps 764 mmHg 69%
    04:00 +15°C° 0 mm 2 mps 764 mmHg 68%
    05:00 +16°C° 0 mm 2 mps 765 mmHg 66%
    06:00 +17°C° 0 mm 2 mps 765 mmHg 65%
    07:00 +19°C° 0 mm 2 mps 764 mmHg 60%
    08:00 +20°C° 0 mm 2 mps 764 mmHg 55%
    09:00 +22°C° 0 mm 3 mps 765 mmHg 49%
    10:00 +24°C° 0 mm 3 mps 764 mmHg 48%
    11:00 +25°C° 0 mm 3 mps 764 mmHg 46%
    12:00 +25°C° 0 mm 3 mps 764 mmHg 44%
    13:00 +25°C° 0 mm 3 mps 763 mmHg 44%
    14:00 +25°C° 0 mm 3 mps 763 mmHg 45%
    15:00 +25°C° 0 mm 3 mps 763 mmHg 46%
    16:00 +24°C° 0 mm 3 mps 762 mmHg 51%
    17:00 +24°C° 0 mm 3 mps 762 mmHg 56%
    18:00 +22°C° 0 mm 3 mps 761 mmHg 61%
    19:00 +21°C° 0 mm 3 mps 761 mmHg 63%
    20:00 +19°C° 0 mm 3 mps 761 mmHg 65%
    21:00 +18°C° 0 mm 3 mps 760 mmHg 68%
    22:00 +18°C° 0 mm 3 mps 760 mmHg 69%
    23:00 +18°C° 0 mm 3 mps 760 mmHg 69%

    Tomorrow, 24 May, Thursday

    Time Temperature Precipitation Wind Pressure Humidity
    00:00 +17°C° 0 mm 3 mps 759 mmHg 70%
    01:00 +17°C° 0 mm 3 mps 759 mmHg 70%
    02:00 +17°C° 0 mm 3 mps 759 mmHg 69%
    03:00 +17°C° 0 mm 4 mps 759 mmHg 69%
    04:00 +17°C° 0.1 mm 4 mps 758 mmHg 72%
    05:00 +18°C° 0.1 mm 4 mps 758 mmHg 76%
    06:00 +18°C° 0.1 mm 4 mps 758 mmHg 79%
    07:00 +18°C° 0.1 mm 4 mps 758 mmHg 79%
    08:00 +19°C° 0.1 mm 4 mps 758 mmHg 80%
    09:00 +20°C° 0.1 mm 4 mps 758 mmHg 80%
    10:00 +20°C° 1 mm 4 mps 758 mmHg 80%
    11:00 +20°C° 1 mm 4 mps 758 mmHg 80%
    12:00 +20°C° 1 mm 4 mps 758 mmHg 80%
    13:00 +21°C° 0 mm 4 mps 757 mmHg 76%
    14:00 +21°C° 0 mm 4 mps 757 mmHg 73%
    15:00 +22°C° 0 mm 4 mps 757 mmHg 70%
    16:00 +21°C° 0.2 mm 4 mps 756 mmHg 74%
    17:00 +21°C° 0.2 mm 3 mps 756 mmHg 78%
    18:00 +20°C° 0.2 mm 3 mps 756 mmHg 82%
    19:00 +19°C° 0.7 mm 3 mps 756 mmHg 85%
    20:00 +18°C° 0.7 mm 3 mps 756 mmHg 88%
    21:00 +17°C° 0.7 mm 3 mps 756 mmHg 90%
    22:00 +17°C° 0.3 mm 3 mps 755 mmHg 91%
    23:00 +16°C° 0.3 mm 2 mps 755 mmHg 92%

    Day after tomorrow, 25 May, Friday

    Time Temperature Precipitation Wind Pressure Humidity
    00:00 +16°C° 0.3 mm 2 mps 755 mmHg 93%
    01:00 +14°C° 0.1 mm 3 mps 755 mmHg 93%
    02:00 +13°C° 0.1 mm 3 mps 755 mmHg 94%
    03:00 +12°C° 0.1 mm 3 mps 755 mmHg 94%
    04:00 +12°C° 0 mm 3 mps 755 mmHg 91%
    05:00 +12°C° 0 mm 4 mps 755 mmHg 88%
    06:00 +12°C° 0 mm 4 mps 755 mmHg 86%
    07:00 +13°C° 0 mm 4 mps 755 mmHg 79%
    08:00 +14°C° 0 mm 5 mps 755 mmHg 73%
    09:00 +14°C° 0 mm 5 mps 755 mmHg 67%
    10:00 +15°C° 0 mm 6 mps 755 mmHg 61%
    11:00 +15°C° 0 mm 6 mps 755 mmHg 54%
    12:00 +16°C° 0 mm 6 mps 755 mmHg 48%
    13:00 +15°C° 0 mm 7 mps 756 mmHg 49%
    14:00 +15°C° 0 mm 7 mps 756 mmHg 49%
    15:00 +13°C° 0 mm 8 mps 756 mmHg 50%
    16:00 +14°C° 0 mm 7 mps 756 mmHg 53%
    17:00 +12°C° 0 mm 7 mps 757 mmHg 55%
    18:00 +11°C° 0 mm 7 mps 757 mmHg 58%
    19:00 +10°C° 0 mm 6 mps 758 mmHg 57%
    20:00 +9°C° 0 mm 6 mps 758 mmHg 56%
    21:00 +8°C° 0 mm 6 mps 759 mmHg 55%
    22:00 +7°C° 0 mm 6 mps 759 mmHg 53%
    23:00 +7°C° 0 mm 6 mps 760 mmHg 52%

    26 May, Saturday

    Time Temperature Precipitation Wind Pressure Humidity
    00:00 +5°C° 0 mm 6 mps 760 mmHg 51%
    01:00 +4°C° 0 mm 6 mps 761 mmHg 52%
    02:00 +4°C° 0 mm 6 mps 761 mmHg 53%
    03:00 +3°C° 0 mm 6 mps 762 mmHg 53%
    04:00 +3°C° 0 mm 7 mps 762 mmHg 53%
    05:00 +4°C° 0 mm 7 mps 762 mmHg 53%
    06:00 +4°C° 0 mm 8 mps 763 mmHg 52%
    07:00 +5°C° 0 mm 8 mps 763 mmHg 50%
    08:00 +6°C° 0 mm 8 mps 764 mmHg 48%
    09:00 +9°C° 0 mm 8 mps 764 mmHg 46%
    10:00 +10°C° 0 mm 8 mps 764 mmHg 44%
    11:00 +11°C° 0 mm 7 mps 764 mmHg 42%
    12:00 +12°C° 0 mm 7 mps 764 mmHg 40%
    13:00 +12°C° 0 mm 7 mps 764 mmHg 40%
    14:00 +14°C° 0 mm 7 mps 764 mmHg 40%
    15:00 +14°C° 0 mm 7 mps 764 mmHg 40%
    16:00 +14°C° 0 mm 5 mps 764 mmHg 46%
    17:00 +14°C° 0 mm 4 mps 763 mmHg 53%
    18:00 +13°C° 0 mm 3 mps 763 mmHg 59%
    19:00 +12°C° 0 mm 3 mps 764 mmHg 61%
    20:00 +10°C° 0 mm 3 mps 764 mmHg 64%
    21:00 +9°C° 0 mm 3 mps 764 mmHg 67%
    22:00 +8°C° 0 mm 2 mps 764 mmHg 67%
    23:00 +8°C° 0 mm 2 mps 763 mmHg 67%

    27 May, Sunday

    Time Temperature Precipitation Wind Pressure Humidity
    00:00 +7°C° 0 mm 2 mps 763 mmHg 67%
    01:00 +7°C° 0 mm 2 mps 763 mmHg 67%
    02:00 +7°C° 0 mm 2 mps 763 mmHg 66%
    03:00 +7°C° 0 mm 2 mps 763 mmHg 65%
    04:00 +8°C° 0 mm 2 mps 762 mmHg 64%
    05:00 +10°C° 0 mm 2 mps 762 mmHg 63%
    06:00 +12°C° 0 mm 2 mps 762 mmHg 62%
    07:00 +14°C° 0 mm 2 mps 761 mmHg 60%
    08:00 +16°C° 0 mm 3 mps 761 mmHg 58%
    09:00 +18°C° 0 mm 3 mps 760 mmHg 56%
    10:00 +19°C° 0 mm 3 mps 760 mmHg 55%
    11:00 +21°C° 0 mm 3 mps 759 mmHg 54%
    12:00 +22°C° 0 mm 4 mps 758 mmHg 53%
    13:00 +22°C° 0 mm 3 mps 758 mmHg 52%
    14:00 +24°C° 0 mm 3 mps 757 mmHg 50%
    15:00 +24°C° 0 mm 3 mps 757 mmHg 49%
    16:00 +22°C° 0 mm 3 mps 756 mmHg 55%
    17:00 +21°C° 0 mm 3 mps 756 mmHg 61%
    18:00 +20°C° 0 mm 3 mps 755 mmHg 67%
    19:00 +18°C° 0.2 mm 3 mps 755 mmHg 70%
    20:00 +17°C° 0.2 mm 3 mps 754 mmHg 73%
    21:00 +16°C° 0.2 mm 3 mps 753 mmHg 77%
    22:00 +15°C° 0.2 mm 4 mps 753 mmHg 78%
    23:00 +15°C° 0.2 mm 5 mps 752 mmHg 79%

    28 May, Monday

    Time Temperature Precipitation Wind Pressure Humidity
    00:00 +15°C° 0.2 mm 5 mps 752 mmHg 80%
    01:00 +14°C° 0.2 mm 6 mps 752 mmHg 84%
    02:00 +13°C° 0.2 mm 6 mps 751 mmHg 88%
    03:00 +11°C° 0.2 mm 6 mps 751 mmHg 91%
    04:00 +11°C° 0 mm 6 mps 751 mmHg 88%
    05:00 +10°C° 0 mm 7 mps 752 mmHg 85%
    06:00 +10°C° 0 mm 7 mps 752 mmHg 82%
    07:00 +11°C° 0 mm 7 mps 752 mmHg 75%
    08:00 +12°C° 0 mm 7 mps 752 mmHg 69%
    09:00 +14°C° 0 mm 7 mps 752 mmHg 62%
    10:00 +14°C° 0.2 mm 7 mps 752 mmHg 61%
    11:00 +13°C° 0.2 mm 8 mps 751 mmHg 61%
    12:00 +13°C° 0.2 mm 8 mps 751 mmHg 60%
    13:00 +13°C° 0.1 mm 8 mps 751 mmHg 55%
    14:00 +13°C° 0.1 mm 9 mps 751 mmHg 51%
    15:00 +13°C° 0.1 mm 9 mps 751 mmHg 46%
    16:00 +13°C° 0 mm 8 mps 751 mmHg 50%
    17:00 +12°C° 0 mm 7 mps 751 mmHg 54%
    18:00 +12°C° 0 mm 5 mps 751 mmHg 57%
    19:00 +9°C° 0 mm 5 mps 751 mmHg 59%
    20:00 +8°C° 0 mm 4 mps 751 mmHg 61%
    21:00 +8°C° 0 mm 3 mps 751 mmHg 63%
    22:00 +7°C° 0 mm 3 mps 751 mmHg 61%
    23:00 +7°C° 0 mm 3 mps 751 mmHg 60%
    Show more